Time,TemperatureF,DewpointF,PressureIn,WindDirection,WindDirectionDegrees,WindSpeedMPH,WindSpeedGustMPH,Humidity,HourlyPrecipIn,Conditions,Clouds,dailyrainin,SoftwareType,DateUTC
2013-03-12 00:00:00,49.1,46.9,27.10,NNW,332,9.7,15.3,91,0.00,--,--,0.00,awk and wget,2013-03-12 04:00:00,
2013-03-12 00:05:00,49.1,47.1,27.09,NNW,331,18.2,18.2,92,0.00,--,--,0.00,awk and wget,2013-03-12 04:05:00,
2013-03-12 00:10:00,49.3,47.2,27.09,NNW,332,7.2,16.2,92,0.00,--,--,0.00,awk and wget,2013-03-12 04:10:00,
2013-03-12 00:15:00,49.3,47.3,27.09,NNW,333,15.3,16.2,92,0.00,--,--,0.00,awk and wget,2013-03-12 04:15:00,
2013-03-12 00:20:00,49.6,47.3,27.09,NNW,331,7.2,19.7,91,0.00,--,--,0.00,awk and wget,2013-03-12 04:20:00,
2013-03-12 00:25:00,49.4,47.2,27.09,NNW,333,6.5,19.7,91,0.00,--,--,0.00,awk and wget,2013-03-12 04:25:00,
2013-03-12 00:30:00,49.7,47.4,27.09,NNW,336,10.2,19.7,91,0.00,--,--,0.00,awk and wget,2013-03-12 04:30:00,
2013-03-12 00:35:00,49.9,47.5,27.08,NNW,333,4.7,27.2,91,0.00,--,--,0.00,awk and wget,2013-03-12 04:35:00,
2013-03-12 00:40:00,49.9,47.5,27.08,NNW,336,8.0,27.2,91,0.00,--,--,0.00,awk and wget,2013-03-12 04:40:00,
2013-03-12 00:45:00,50.2,47.5,27.08,NNW,336,5.5,29.3,90,0.00,--,--,0.00,awk and wget,2013-03-12 04:45:00,
2013-03-12 00:50:00,50.0,47.5,27.08,NNW,333,4.8,29.3,91,0.00,--,--,0.00,awk and wget,2013-03-12 04:50:00,
2013-03-12 00:55:00,49.9,47.5,27.08,NNW,334,12.4,29.3,91,0.00,--,--,0.00,awk and wget,2013-03-12 04:55:00,
2013-03-12 01:00:00,50.0,47.6,27.08,NNW,333,9.8,28.4,91,0.00,--,--,0.00,awk and wget,2013-03-12 05:00:00,
2013-03-12 01:05:00,50.0,47.7,27.08,NNW,332,9.9,22.1,91,0.00,--,--,0.00,awk and wget,2013-03-12 05:05:00,
2013-03-12 01:10:00,50.4,47.7,27.08,NNW,334,7.8,22.1,90,0.00,--,--,0.00,awk and wget,2013-03-12 05:10:00,
2013-03-12 01:15:00,50.0,47.5,27.08,NNW,332,8.2,19.6,90,0.00,--,--,0.00,awk and wget,2013-03-12 05:15:00,
2013-03-12 01:20:00,49.9,47.5,27.08,NNW,335,8.4,29.1,91,0.00,--,--,0.00,awk and wget,2013-03-12 05:20:00,
2013-03-12 01:30:00,50.1,47.4,27.08,NNW,332,8.0,29.1,90,0.00,--,--,0.00,awk and wget,2013-03-12 05:30:00,
2013-03-12 01:40:00,49.8,47.5,27.07,NNW,333,10.2,15.6,91,0.00,--,--,0.00,awk and wget,2013-03-12 05:40:00,
2013-03-12 01:45:00,50.0,47.7,27.07,NNW,331,5.9,16.1,91,0.00,--,--,0.00,awk and wget,2013-03-12 05:45:00,
2013-03-12 01:50:00,50.0,47.6,27.07,NNW,333,5.2,18.4,91,0.00,--,--,0.00,awk and wget,2013-03-12 05:50:00,
2013-03-12 02:00:00,50.2,47.9,27.06,NNW,333,7.9,20.3,91,0.00,--,--,0.00,awk and wget,2013-03-12 06:00:00,
2013-03-12 02:05:00,50.3,47.8,27.06,NNW,335,8.9,20.3,91,0.00,--,--,0.00,awk and wget,2013-03-12 06:05:00,
2013-03-12 02:10:00,50.4,47.7,27.06,NNW,331,8.9,20.2,90,0.00,--,--,0.00,awk and wget,2013-03-12 06:10:00,
2013-03-12 02:20:00,50.7,47.7,27.06,NNW,334,5.8,20.2,89,0.00,--,--,0.00,awk and wget,2013-03-12 06:20:00,
2013-03-12 02:30:00,50.6,47.6,27.06,East,95,11.4,19.3,89,0.00,--,--,0.00,awk and wget,2013-03-12 06:30:00,
2013-03-12 02:40:00,50.6,47.7,27.06,NE,55,8.0,24.0,89,0.00,--,--,0.00,awk and wget,2013-03-12 06:40:00,
2013-03-12 02:45:00,50.8,47.7,27.06,NNW,335,9.2,24.0,89,0.00,--,--,0.00,awk and wget,2013-03-12 06:45:00,
2013-03-12 02:50:00,50.6,47.8,27.06,NNW,332,18.3,23.3,89,0.00,--,--,0.00,awk and wget,2013-03-12 06:50:00,
2013-03-12 02:55:00,50.4,47.8,27.06,NNW,331,9.0,23.3,90,0.00,--,--,0.00,awk and wget,2013-03-12 06:55:00,
2013-03-12 03:00:00,50.2,47.8,27.05,NNW,332,5.7,23.3,91,0.00,--,--,0.00,awk and wget,2013-03-12 07:00:00,
2013-03-12 03:05:00,50.4,47.8,27.05,NNW,333,7.1,18.9,90,0.00,--,--,0.00,awk and wget,2013-03-12 07:05:00,
2013-03-12 03:10:00,50.2,47.8,27.05,NNW,332,9.5,18.9,91,0.00,--,--,0.00,awk and wget,2013-03-12 07:10:00,
2013-03-12 03:15:00,49.8,47.7,27.05,NNW,335,9.3,18.9,92,0.00,--,--,0.00,awk and wget,2013-03-12 07:15:00,
2013-03-12 03:20:00,49.9,47.9,27.05,NNW,334,8.4,17.0,92,0.00,--,--,0.00,awk and wget,2013-03-12 07:20:00,
2013-03-12 03:30:00,50.5,47.9,27.05,NNW,334,8.0,21.2,90,0.00,--,--,0.00,awk and wget,2013-03-12 07:30:00,
2013-03-12 03:35:00,50.3,47.7,27.05,NNW,335,13.1,21.2,90,0.00,--,--,0.00,awk and wget,2013-03-12 07:35:00,
2013-03-12 03:40:00,50.3,47.9,27.05,ENE,60,10.2,18.8,91,0.00,--,--,0.00,awk and wget,2013-03-12 07:40:00,
2013-03-12 03:45:00,50.5,47.8,27.05,NNW,333,11.9,24.3,90,0.00,--,--,0.00,awk and wget,2013-03-12 07:45:00,
2013-03-12 03:50:00,50.1,47.7,27.04,NNW,335,2.6,24.3,91,0.00,--,--,0.00,awk and wget,2013-03-12 07:50:00,
2013-03-12 04:00:00,49.9,47.8,27.04,NNW,333,9.7,15.2,92,0.00,--,--,0.00,awk and wget,2013-03-12 08:00:00,
2013-03-12 04:05:00,49.8,47.8,27.04,NNW,333,4.7,14.9,92,0.00,--,--,0.00,awk and wget,2013-03-12 08:05:00,
2013-03-12 04:10:00,49.8,47.9,27.04,NNW,333,11.9,14.9,93,0.00,--,--,0.00,awk and wget,2013-03-12 08:10:00,
2013-03-12 04:15:00,49.7,47.9,27.03,NNW,332,7.5,14.9,93,0.00,--,--,0.00,awk and wget,2013-03-12 08:15:00,
2013-03-12 04:20:00,49.5,47.8,27.03,NNW,333,6.7,12.7,93,0.00,--,--,0.00,awk and wget,2013-03-12 08:20:00,
2013-03-12 04:30:00,49.2,47.7,27.03,NNW,336,8.1,12.1,94,0.00,--,--,0.00,awk and wget,2013-03-12 08:30:00,
2013-03-12 04:35:00,49.3,47.9,27.03,NNW,334,3.9,10.8,94,0.00,--,--,0.00,awk and wget,2013-03-12 08:35:00,
2013-03-12 04:40:00,49.4,48.0,27.02,NNW,332,5.0,10.8,94,0.00,--,--,0.00,awk and wget,2013-03-12 08:40:00,
2013-03-12 04:45:00,49.4,48.0,27.03,NNW,333,5.2,12.5,94,0.00,--,--,0.00,awk and wget,2013-03-12 08:45:00,
2013-03-12 04:50:00,49.6,48.2,27.03,NNW,332,9.8,16.1,94,0.00,--,--,0.00,awk and wget,2013-03-12 08:50:00,
2013-03-12 04:55:00,49.1,47.7,27.03,NNW,336,10.4,16.1,94,0.00,--,--,0.00,awk and wget,2013-03-12 08:55:00,
2013-03-12 05:00:00,48.9,47.7,27.03,NNW,331,10.2,16.1,95,0.00,--,--,0.00,awk and wget,2013-03-12 09:00:00,
2013-03-12 05:05:00,48.8,47.7,27.04,NNW,331,12.4,12.8,95,0.00,--,--,0.00,awk and wget,2013-03-12 09:05:00,
2013-03-12 05:10:00,49.0,47.9,27.03,NNW,336,5.5,10.9,96,0.00,--,--,0.00,awk and wget,2013-03-12 09:10:00,
2013-03-12 05:15:00,48.4,47.3,27.03,North,351,4.0,10.9,95,0.00,--,--,0.00,awk and wget,2013-03-12 09:15:00,
2013-03-12 05:20:00,46.2,45.0,27.03,NNW,338,12.3,14.3,95,0.00,--,--,0.00,awk and wget,2013-03-12 09:20:00,
2013-03-12 05:30:00,45.1,43.4,27.03,NNW,348,9.8,21.3,93,0.00,--,--,0.00,awk and wget,2013-03-12 09:30:00,
2013-03-12 05:40:00,44.4,42.9,27.04,NNW,332,8.2,14.0,94,0.00,--,--,0.00,awk and wget,2013-03-12 09:40:00,
2013-03-12 05:45:00,44.6,43.3,27.04,East,88,5.2,13.7,94,0.00,--,--,0.00,awk and wget,2013-03-12 09:45:00,
2013-03-12 05:50:00,44.3,43.1,27.03,East,82,10.2,13.0,95,0.00,--,--,0.00,awk and wget,2013-03-12 09:50:00,
2013-03-12 05:55:00,43.6,42.4,27.04,NNE,33,6.9,15.2,95,0.00,--,--,0.00,awk and wget,2013-03-12 09:55:00,
2013-03-12 06:00:00,43.0,41.9,27.04,ENE,68,16.3,16.3,95,0.00,--,--,0.00,awk and wget,2013-03-12 10:00:00,
2013-03-12 06:05:00,42.4,41.2,27.05,NE,55,6.6,15.2,95,0.00,--,--,0.00,awk and wget,2013-03-12 10:05:00,
2013-03-12 06:10:00,41.8,40.7,27.04,NNW,332,15.0,15.0,95,0.00,--,--,0.00,awk and wget,2013-03-12 10:10:00,
2013-03-12 06:20:00,41.2,40.1,27.04,North,11,11.9,16.5,95,0.00,--,--,0.00,awk and wget,2013-03-12 10:20:00,
2013-03-12 06:25:00,40.9,39.8,27.04,NE,50,9.4,16.5,95,0.00,--,--,0.00,awk and wget,2013-03-12 10:25:00,
2013-03-12 06:30:00,40.8,39.7,27.05,NE,51,12.9,16.5,95,0.00,--,--,0.00,awk and wget,2013-03-12 10:30:00,
2013-03-12 06:40:00,40.5,39.4,27.07,NNW,332,1.9,16.4,95,0.00,--,--,0.00,awk and wget,2013-03-12 10:40:00,
2013-03-12 06:45:00,40.4,39.3,27.07,NNW,335,7.9,17.0,95,0.00,--,--,0.00,awk and wget,2013-03-12 10:45:00,
2013-03-12 06:50:00,40.0,38.5,27.07,North,359,7.7,18.8,94,0.00,--,--,0.00,awk and wget,2013-03-12 10:50:00,
2013-03-12 06:55:00,39.7,38.1,27.07,NNW,341,2.7,18.8,93,0.00,--,--,0.00,awk and wget,2013-03-12 10:55:00,
2013-03-12 07:00:00,39.5,37.7,27.07,NNW,336,7.9,18.8,93,0.00,--,--,0.00,awk and wget,2013-03-12 11:00:00,
2013-03-12 07:05:00,39.3,37.2,27.07,NE,37,4.0,17.9,92,0.00,--,--,0.00,awk and wget,2013-03-12 11:05:00,
2013-03-12 07:10:00,39.2,37.3,27.07,NE,36,6.9,17.9,92,0.00,--,--,0.00,awk and wget,2013-03-12 11:10:00,
2013-03-12 07:15:00,39.1,37.4,27.08,NE,44,4.5,15.0,93,0.00,--,--,0.00,awk and wget,2013-03-12 11:15:00,
2013-03-12 07:20:00,38.9,37.3,27.07,NNE,22,6.9,14.6,94,0.00,--,--,0.00,awk and wget,2013-03-12 11:20:00,
2013-03-12 07:30:00,38.4,37.0,27.07,NE,41,6.9,12.3,94,0.00,--,--,0.00,awk and wget,2013-03-12 11:30:00,
2013-03-12 07:35:00,38.2,36.8,27.08,NNE,26,7.1,12.3,94,0.00,--,--,0.00,awk and wget,2013-03-12 11:35:00,
2013-03-12 07:40:00,38.2,36.7,27.08,NNE,28,7.9,12.3,94,0.00,--,--,0.00,awk and wget,2013-03-12 11:40:00,
2013-03-12 07:45:00,38.1,36.7,27.07,NNW,332,7.4,11.3,94,0.00,--,--,0.00,awk and wget,2013-03-12 11:45:00,
2013-03-12 07:50:00,37.9,36.4,27.07,NNW,332,6.0,11.3,94,0.00,--,--,0.00,awk and wget,2013-03-12 11:50:00,
2013-03-12 07:55:00,38.0,36.4,27.08,NNE,18,6.2,11.3,93,0.00,--,--,0.00,awk and wget,2013-03-12 11:55:00,
2013-03-12 08:00:00,38.1,36.4,27.08,NNW,338,2.7,11.0,93,0.00,--,--,0.00,awk and wget,2013-03-12 12:00:00,
2013-03-12 08:05:00,38.0,36.0,27.08,North,349,4.4,19.5,92,0.00,--,--,0.00,awk and wget,2013-03-12 12:05:00,
2013-03-12 08:10:00,37.8,35.9,27.08,North,350,9.0,19.5,92,0.00,--,--,0.00,awk and wget,2013-03-12 12:10:00,
2013-03-12 08:15:00,37.6,35.4,27.09,NNW,337,4.4,19.5,91,0.00,--,--,0.00,awk and wget,2013-03-12 12:15:00,
2013-03-12 08:20:00,37.6,35.2,27.09,NNE,21,4.8,16.8,90,0.00,--,--,0.00,awk and wget,2013-03-12 12:20:00,
2013-03-12 08:30:00,37.3,34.7,27.10,North,9,3.7,15.1,90,0.00,--,--,0.00,awk and wget,2013-03-12 12:30:00,
2013-03-12 08:35:00,37.4,35.0,27.10,North,355,3.6,14.1,90,0.00,--,--,0.00,awk and wget,2013-03-12 12:35:00,
2013-03-12 08:40:00,37.3,35.1,27.10,NE,45,4.1,11.4,91,0.00,--,--,0.00,awk and wget,2013-03-12 12:40:00,
2013-03-12 08:45:00,37.2,35.2,27.10,NE,45,3.5,11.4,92,0.00,--,--,0.00,awk and wget,2013-03-12 12:45:00,
2013-03-12 08:50:00,37.3,35.3,27.10,NE,42,1.5,29.9,92,0.00,--,--,0.00,awk and wget,2013-03-12 12:50:00,
2013-03-12 09:00:00,37.4,35.3,27.10,NNE,27,2.9,29.9,92,0.00,--,--,0.00,awk and wget,2013-03-12 13:00:00,
2013-03-12 09:10:00,37.5,35.2,27.11,NNW,338,9.1,12.6,91,0.00,--,--,0.00,awk and wget,2013-03-12 13:10:00,
2013-03-12 09:15:00,37.2,34.5,27.11,NNW,336,8.2,12.6,89,0.00,--,--,0.00,awk and wget,2013-03-12 13:15:00,
2013-03-12 09:20:00,37.1,34.2,27.11,NNW,334,5.8,12.0,88,0.00,--,--,0.00,awk and wget,2013-03-12 13:20:00,
2013-03-12 09:30:00,37.1,34.1,27.11,NNW,345,3.1,12.3,89,0.00,--,--,0.00,awk and wget,2013-03-12 13:30:00,
2013-03-12 09:35:00,37.1,34.0,27.11,North,352,10.8,13.0,88,0.00,--,--,0.00,awk and wget,2013-03-12 13:35:00,
2013-03-12 09:40:00,37.1,33.8,27.11,North,351,6.7,13.0,87,0.00,--,--,0.00,awk and wget,2013-03-12 13:40:00,
2013-03-12 09:45:00,37.1,33.9,27.11,NNE,21,6.5,16.3,87,0.00,--,--,0.00,awk and wget,2013-03-12 13:45:00,
2013-03-12 09:50:00,37.1,33.7,27.12,NNW,342,12.2,26.3,87,0.00,--,--,0.00,awk and wget,2013-03-12 13:50:00,
2013-03-12 10:00:00,36.9,33.4,27.12,NNW,338,4.2,26.3,87,0.00,--,--,0.00,awk and wget,2013-03-12 14:00:00,
2013-03-12 10:10:00,36.4,32.9,27.12,NNW,340,6.3,13.4,86,0.00,--,--,0.00,awk and wget,2013-03-12 14:10:00,
2013-03-12 10:15:00,36.6,33.3,27.12,NNW,338,4.5,12.0,87,0.00,--,--,0.00,awk and wget,2013-03-12 14:15:00,
2013-03-12 10:20:00,36.5,33.4,27.12,East,87,0.9,12.0,88,0.00,--,--,0.00,awk and wget,2013-03-12 14:20:00,
2013-03-12 10:30:00,36.8,34.1,27.11,ENE,69,2.0,9.1,89,0.00,--,--,0.00,awk and wget,2013-03-12 14:30:00,
2013-03-12 10:40:00,37.8,35.4,27.12,NE,54,3.7,9.1,90,0.00,--,--,0.00,awk and wget,2013-03-12 14:40:00,
2013-03-12 10:45:00,37.9,35.2,27.11,ENE,58,4.7,8.7,89,0.00,--,--,0.00,awk and wget,2013-03-12 14:45:00,
2013-03-12 10:50:00,38.5,35.5,27.11,ENE,67,3.7,7.2,88,0.00,--,--,0.00,awk and wget,2013-03-12 14:50:00,
2013-03-12 11:00:00,40.1,35.8,27.11,NNW,338,4.3,8.1,84,0.00,--,--,0.00,awk and wget,2013-03-12 15:00:00,
2013-03-12 11:10:00,39.6,33.3,27.11,North,349,0.6,11.9,78,0.00,--,--,0.00,awk and wget,2013-03-12 15:10:00,
2013-03-12 11:15:00,40.0,33.6,27.10,North,0,5.5,11.9,77,0.00,--,--,0.00,awk and wget,2013-03-12 15:15:00,
2013-03-12 11:20:00,39.4,32.6,27.11,NNW,337,5.4,11.9,76,0.00,--,--,0.00,awk and wget,2013-03-12 15:20:00,
2013-03-12 11:30:00,40.4,34.9,27.11,North,350,2.8,11.4,80,0.00,--,--,0.00,awk and wget,2013-03-12 15:30:00,
2013-03-12 11:35:00,40.1,33.6,27.11,NNW,348,6.8,11.0,77,0.00,--,--,0.00,awk and wget,2013-03-12 15:35:00,
2013-03-12 11:40:00,40.2,33.0,27.11,NNW,335,1.8,14.3,75,0.00,--,--,0.00,awk and wget,2013-03-12 15:40:00,
2013-03-12 11:50:00,40.1,32.7,27.11,NNW,336,5.9,19.5,74,0.00,--,--,0.00,awk and wget,2013-03-12 15:50:00,
2013-03-12 11:55:00,40.7,33.4,27.12,NNW,337,7.3,19.5,74,0.00,--,--,0.00,awk and wget,2013-03-12 15:55:00,
2013-03-12 12:00:00,40.1,32.6,27.12,NNW,333,17.3,18.8,74,0.00,--,--,0.00,awk and wget,2013-03-12 16:00:00,
2013-03-12 12:05:00,39.6,32.3,27.12,NNW,339,9.1,23.6,74,0.00,--,--,0.00,awk and wget,2013-03-12 16:05:00,
2013-03-12 12:10:00,40.2,32.7,27.12,NNW,340,13.1,23.6,74,0.00,--,--,0.00,awk and wget,2013-03-12 16:10:00,
2013-03-12 12:20:00,40.3,30.6,27.12,NNW,337,14.8,21.3,67,0.00,--,--,0.00,awk and wget,2013-03-12 16:20:00,
2013-03-12 12:25:00,40.2,30.8,27.12,NNW,341,10.5,21.3,68,0.00,--,--,0.00,awk and wget,2013-03-12 16:25:00,
2013-03-12 12:30:00,40.0,30.4,27.12,NNW,333,10.5,19.0,68,0.00,--,--,0.00,awk and wget,2013-03-12 16:30:00,
2013-03-12 12:40:00,41.8,31.6,27.13,NNW,344,13.5,18.7,67,0.00,--,--,0.00,awk and wget,2013-03-12 16:40:00,
2013-03-12 12:45:00,41.4,31.4,27.13,NNW,338,15.0,18.7,67,0.00,--,--,0.00,awk and wget,2013-03-12 16:45:00,
2013-03-12 12:50:00,40.7,31.3,27.13,NNW,335,10.8,22.9,68,0.00,--,--,0.00,awk and wget,2013-03-12 16:50:00,
2013-03-12 12:55:00,39.2,30.0,27.13,NNW,340,14.8,22.9,69,0.00,--,--,0.00,awk and wget,2013-03-12 16:55:00,
2013-03-12 13:00:00,40.3,32.2,27.13,NNW,346,8.4,23.6,72,0.00,--,--,0.00,awk and wget,2013-03-12 17:00:00,
2013-03-12 13:05:00,39.4,29.3,27.13,NNW,337,15.3,23.6,66,0.00,--,--,0.00,awk and wget,2013-03-12 17:05:00,
2013-03-12 13:10:00,38.4,29.5,27.13,North,358,12.5,23.6,70,0.00,--,--,0.00,awk and wget,2013-03-12 17:10:00,
2013-03-12 13:15:00,38.9,30.6,27.13,NNW,336,6.8,19.4,71,0.00,--,--,0.00,awk and wget,2013-03-12 17:15:00,
2013-03-12 13:20:00,38.6,29.7,27.13,NNW,337,8.8,19.4,69,0.00,--,--,0.00,awk and wget,2013-03-12 17:20:00,
2013-03-12 13:30:00,39.7,29.9,27.11,North,6,7.5,14.9,67,0.00,--,--,0.00,awk and wget,2013-03-12 17:30:00,
2013-03-12 13:35:00,41.1,30.9,27.12,NNW,336,12.4,14.9,66,0.00,--,--,0.00,awk and wget,2013-03-12 17:35:00,
2013-03-12 13:40:00,39.9,29.7,27.12,North,4,10.1,14.9,66,0.00,--,--,0.00,awk and wget,2013-03-12 17:40:00,
2013-03-12 13:45:00,38.8,29.5,27.13,North,359,9.6,19.0,69,0.00,--,--,0.00,awk and wget,2013-03-12 17:45:00,
2013-03-12 13:50:00,38.1,28.9,27.13,North,353,12.7,19.0,69,0.00,--,--,0.00,awk and wget,2013-03-12 17:50:00,
2013-03-12 13:55:00,38.4,29.5,27.13,NNW,335,17.0,19.6,70,0.00,--,--,0.00,awk and wget,2013-03-12 17:55:00,
2013-03-12 14:00:00,37.7,29.0,27.13,North,353,11.8,20.0,70,0.00,--,--,0.00,awk and wget,2013-03-12 18:00:00,
2013-03-12 14:05:00,37.6,29.1,27.13,NNW,341,6.2,20.8,71,0.00,--,--,0.00,awk and wget,2013-03-12 18:05:00,
2013-03-12 14:10:00,37.2,28.8,27.13,North,349,8.9,20.8,71,0.00,--,--,0.00,awk and wget,2013-03-12 18:10:00,
2013-03-12 14:15:00,38.0,28.8,27.13,NNW,338,10.2,20.8,69,0.00,--,--,0.00,awk and wget,2013-03-12 18:15:00,
2013-03-12 14:20:00,38.1,28.6,27.13,NNW,333,8.0,17.7,68,0.00,--,--,0.00,awk and wget,2013-03-12 18:20:00,
2013-03-12 14:25:00,38.8,29.2,27.13,North,359,9.7,15.9,68,0.00,--,--,0.00,awk and wget,2013-03-12 18:25:00,
2013-03-12 14:30:00,38.5,28.2,27.13,North,351,8.2,15.5,66,0.00,--,--,0.00,awk and wget,2013-03-12 18:30:00,
2013-03-12 14:35:00,39.0,28.3,27.13,NNW,340,5.0,15.4,65,0.00,--,--,0.00,awk and wget,2013-03-12 18:35:00,
2013-03-12 14:40:00,38.9,28.0,27.14,North,352,6.7,16.8,64,0.00,--,--,0.00,awk and wget,2013-03-12 18:40:00,
2013-03-12 14:45:00,39.0,28.1,27.14,NNW,332,10.4,18.0,64,0.00,--,--,0.00,awk and wget,2013-03-12 18:45:00,
2013-03-12 14:50:00,38.9,27.9,27.14,North,356,11.3,27.2,64,0.00,--,--,0.00,awk and wget,2013-03-12 18:50:00,
2013-03-12 15:00:00,38.7,27.5,27.14,North,352,9.6,27.2,63,0.00,--,--,0.00,awk and wget,2013-03-12 19:00:00,
2013-03-12 15:10:00,38.8,27.6,27.14,North,353,6.2,18.4,63,0.00,--,--,0.00,awk and wget,2013-03-12 19:10:00,
2013-03-12 15:20:00,38.4,27.0,27.14,NNE,20,9.3,18.4,63,0.00,--,--,0.00,awk and wget,2013-03-12 19:20:00,
2013-03-12 15:25:00,39.9,27.6,27.13,NNW,348,8.3,18.4,61,0.00,--,--,0.00,awk and wget,2013-03-12 19:25:00,
2013-03-12 15:30:00,39.6,27.1,27.13,NNW,346,6.1,16.3,60,0.00,--,--,0.00,awk and wget,2013-03-12 19:30:00,
2013-03-12 15:35:00,39.2,27.0,27.13,NNW,338,5.9,14.9,61,0.00,--,--,0.00,awk and wget,2013-03-12 19:35:00,
2013-03-12 15:40:00,39.4,27.6,27.12,NNW,342,9.5,16.4,62,0.00,--,--,0.00,awk and wget,2013-03-12 19:40:00,
2013-03-12 15:50:00,40.2,26.6,27.12,NNW,339,12.5,16.4,58,0.00,--,--,0.00,awk and wget,2013-03-12 19:50:00,
2013-03-12 15:55:00,40.0,26.6,27.12,NNW,340,11.1,16.6,58,0.00,--,--,0.00,awk and wget,2013-03-12 19:55:00,
2013-03-12 16:00:00,39.8,25.9,27.12,NNW,340,7.5,21.7,57,0.00,--,--,0.00,awk and wget,2013-03-12 20:00:00,
2013-03-12 16:05:00,39.7,25.3,27.12,NNW,345,11.7,21.7,56,0.00,--,--,0.00,awk and wget,2013-03-12 20:05:00,
2013-03-12 16:10:00,39.4,24.7,27.12,NNW,336,7.5,21.7,55,0.00,--,--,0.00,awk and wget,2013-03-12 20:10:00,
2013-03-12 16:15:00,39.5,25.1,27.12,NNW,347,13.5,19.1,56,0.00,--,--,0.00,awk and wget,2013-03-12 20:15:00,
2013-03-12 16:20:00,38.8,25.0,27.12,North,350,10.3,15.8,57,0.00,--,--,0.00,awk and wget,2013-03-12 20:20:00,
2013-03-12 16:25:00,38.9,25.7,27.13,NNE,14,8.4,15.8,58,0.00,--,--,0.00,awk and wget,2013-03-12 20:25:00,
2013-03-12 16:30:00,38.7,26.2,27.13,NNW,344,10.8,17.3,60,0.00,--,--,0.00,awk and wget,2013-03-12 20:30:00,
2013-03-12 16:40:00,38.2,26.1,27.14,NNE,23,9.2,17.4,61,0.00,--,--,0.00,awk and wget,2013-03-12 20:40:00,
2013-03-12 16:45:00,38.6,26.2,27.14,NNW,339,11.1,20.0,60,0.00,--,--,0.00,awk and wget,2013-03-12 20:45:00,
2013-03-12 16:50:00,37.5,26.0,27.14,NNW,341,8.1,20.1,62,0.00,--,--,0.00,awk and wget,2013-03-12 20:50:00,
2013-03-12 17:00:00,36.7,26.3,27.15,NNW,341,15.3,20.1,65,0.00,--,--,0.00,awk and wget,2013-03-12 21:00:00,
2013-03-12 17:10:00,35.6,26.6,27.15,North,6,17.4,38.0,69,0.00,--,--,0.00,awk and wget,2013-03-12 21:10:00,
2013-03-12 17:15:00,35.4,26.7,27.15,NNW,329,5.5,38.0,70,0.00,--,--,0.00,awk and wget,2013-03-12 21:15:00,
2013-03-12 17:20:00,35.5,26.8,27.15,NNW,347,8.4,38.0,70,0.00,--,--,0.00,awk and wget,2013-03-12 21:20:00,
2013-03-12 17:25:00,35.3,26.8,27.15,NNW,331,13.8,20.1,70,0.00,--,--,0.00,awk and wget,2013-03-12 21:25:00,
2013-03-12 17:30:00,35.4,26.9,27.15,North,4,10.3,19.7,70,0.00,--,--,0.00,awk and wget,2013-03-12 21:30:00,
2013-03-12 17:40:00,35.1,26.8,27.15,NNW,331,7.6,19.2,71,0.00,--,--,0.00,awk and wget,2013-03-12 21:40:00,
2013-03-12 17:50:00,34.9,26.9,27.16,NE,45,4.9,17.7,72,0.00,--,--,0.00,awk and wget,2013-03-12 21:50:00,
2013-03-12 18:00:00,34.9,26.8,27.15,North,350,8.4,14.3,72,0.00,--,--,0.00,awk and wget,2013-03-12 22:00:00,
2013-03-12 18:05:00,34.5,26.7,27.16,NNW,346,17.4,17.4,72,0.00,--,--,0.00,awk and wget,2013-03-12 22:05:00,
2013-03-12 18:10:00,34.5,26.5,27.16,NNW,339,14.1,16.7,72,0.00,--,--,0.00,awk and wget,2013-03-12 22:10:00,
2013-03-12 18:20:00,34.4,25.7,27.16,North,358,12.7,17.8,70,0.00,--,--,0.00,awk and wget,2013-03-12 22:20:00,
2013-03-12 18:25:00,34.2,25.4,27.16,NNW,332,10.2,17.8,69,0.00,--,--,0.00,awk and wget,2013-03-12 22:25:00,
2013-03-12 18:30:00,33.8,25.5,27.16,North,7,9.6,17.8,71,0.00,--,--,0.00,awk and wget,2013-03-12 22:30:00,
2013-03-12 18:35:00,33.9,25.3,27.16,North,8,14.5,16.7,70,0.00,--,--,0.00,awk and wget,2013-03-12 22:35:00,
2013-03-12 18:40:00,33.6,25.1,27.16,North,8,16.5,18.1,70,0.00,--,--,0.00,awk and wget,2013-03-12 22:40:00,
2013-03-12 18:45:00,33.4,24.9,27.16,NNW,348,9.1,20.5,70,0.00,--,--,0.00,awk and wget,2013-03-12 22:45:00,
2013-03-12 18:50:00,33.3,25.1,27.17,NNW,335,9.3,20.5,71,0.00,--,--,0.00,awk and wget,2013-03-12 22:50:00,
2013-03-12 18:55:00,33.3,25.1,27.17,NNW,347,10.6,20.5,71,0.00,--,--,0.00,awk and wget,2013-03-12 22:55:00,
2013-03-12 19:00:00,33.3,25.1,27.17,NNE,16,5.8,20.0,71,0.00,--,--,0.00,awk and wget,2013-03-12 23:00:00,
2013-03-12 19:05:00,33.3,25.2,27.18,NNW,331,11.7,22.6,71,0.00,--,--,0.00,awk and wget,2013-03-12 23:05:00,
2013-03-12 19:10:00,33.4,25.0,27.18,NNW,336,11.1,22.6,70,0.00,--,--,0.00,awk and wget,2013-03-12 23:10:00,
2013-03-12 19:20:00,33.3,25.0,27.18,NNW,343,5.1,19.9,71,0.00,--,--,0.00,awk and wget,2013-03-12 23:20:00,
2013-03-12 19:30:00,33.1,25.1,27.19,NNW,337,8.4,18.7,72,0.00,--,--,0.00,awk and wget,2013-03-12 23:30:00,
2013-03-12 19:35:00,33.1,25.0,27.19,NNE,12,10.0,15.2,71,0.00,--,--,0.00,awk and wget,2013-03-12 23:35:00,
2013-03-12 19:40:00,33.0,24.8,27.19,NNW,333,10.8,12.9,71,0.00,--,--,0.00,awk and wget,2013-03-12 23:40:00,
2013-03-12 19:45:00,33.0,24.9,27.19,North,354,6.8,14.7,71,0.00,--,--,0.00,awk and wget,2013-03-12 23:45:00,
2013-03-12 19:50:00,33.2,24.7,27.19,NNW,343,4.7,14.7,70,0.00,--,--,0.00,awk and wget,2013-03-12 23:50:00,
2013-03-12 19:55:00,33.1,24.4,27.19,NNW,334,3.3,14.7,69,0.00,--,--,0.00,awk and wget,2013-03-12 23:55:00,
2013-03-12 20:00:00,33.0,24.6,27.19,NNW,336,5.3,14.2,70,0.00,--,--,0.00,awk and wget,2013-03-13 00:00:00,
2013-03-12 20:05:00,32.6,24.7,27.19,NNW,346,3.1,14.2,72,0.00,--,--,0.00,awk and wget,2013-03-13 00:05:00,
2013-03-12 20:10:00,32.4,24.5,27.19,North,354,3.8,14.2,72,0.00,--,--,0.00,awk and wget,2013-03-13 00:10:00,
2013-03-12 20:20:00,32.6,24.4,27.19,NNW,336,16.0,18.8,71,0.00,--,--,0.00,awk and wget,2013-03-13 00:20:00,
2013-03-12 20:30:00,32.2,23.9,27.20,NNW,336,11.5,18.8,71,0.00,--,--,0.00,awk and wget,2013-03-13 00:30:00,
2013-03-12 20:35:00,32.2,23.6,27.20,NNW,336,9.7,16.6,70,0.00,--,--,0.00,awk and wget,2013-03-13 00:35:00,
2013-03-12 20:40:00,32.0,23.3,27.20,NNW,341,5.1,16.9,70,0.00,--,--,0.00,awk and wget,2013-03-13 00:40:00,
2013-03-12 20:45:00,31.8,23.4,27.20,NNW,347,13.6,17.4,70,0.00,--,--,0.00,awk and wget,2013-03-13 00:45:00,
2013-03-12 20:50:00,31.8,23.4,27.20,North,352,8.3,17.4,70,0.00,--,--,0.00,awk and wget,2013-03-13 00:50:00,
2013-03-12 21:00:00,31.7,23.3,27.20,North,356,9.7,13.7,70,0.00,--,--,0.00,awk and wget,2013-03-13 01:00:00,
2013-03-12 21:10:00,31.5,23.2,27.20,NNE,13,5.9,12.6,71,0.00,--,--,0.00,awk and wget,2013-03-13 01:10:00,
2013-03-12 21:15:00,31.1,23.0,27.20,NNW,335,8.4,13.4,71,0.00,--,--,0.00,awk and wget,2013-03-13 01:15:00,
2013-03-12 21:20:00,31.6,22.7,27.21,North,352,6.2,13.4,69,0.00,--,--,0.00,awk and wget,2013-03-13 01:20:00,
2013-03-12 21:30:00,31.3,22.7,27.21,NNW,340,7.6,12.7,70,0.00,--,--,0.00,awk and wget,2013-03-13 01:30:00,
2013-03-12 21:40:00,31.1,22.5,27.20,North,354,6.0,33.4,69,0.00,--,--,0.00,awk and wget,2013-03-13 01:40:00,
2013-03-12 21:45:00,30.8,22.5,27.21,North,7,6.6,33.4,70,0.00,--,--,0.00,awk and wget,2013-03-13 01:45:00,
2013-03-12 21:50:00,30.7,22.5,27.21,NNW,340,6.4,10.2,71,0.00,--,--,0.00,awk and wget,2013-03-13 01:50:00,
2013-03-12 21:55:00,30.9,22.5,27.21,NNW,337,11.8,11.8,70,0.00,--,--,0.00,awk and wget,2013-03-13 01:55:00,
2013-03-12 22:00:00,31.2,22.5,27.22,NNW,348,8.3,10.2,69,0.00,--,--,0.00,awk and wget,2013-03-13 02:00:00,
2013-03-12 22:05:00,31.3,22.5,27.22,NNW,345,5.3,14.2,69,0.00,--,--,0.00,awk and wget,2013-03-13 02:05:00,
2013-03-12 22:10:00,31.2,22.4,27.22,NNW,334,6.9,14.2,69,0.00,--,--,0.00,awk and wget,2013-03-13 02:10:00,
2013-03-12 22:20:00,31.4,22.1,27.22,NNW,344,3.4,11.9,68,0.00,--,--,0.00,awk and wget,2013-03-13 02:20:00,
2013-03-12 22:25:00,31.1,22.6,27.22,NNW,345,9.2,11.9,70,0.00,--,--,0.00,awk and wget,2013-03-13 02:25:00,
2013-03-12 22:30:00,31.2,22.5,27.22,North,355,3.9,10.3,69,0.00,--,--,0.00,awk and wget,2013-03-13 02:30:00,
2013-03-12 22:35:00,31.3,22.3,27.22,North,354,8.7,12.3,69,0.00,--,--,0.00,awk and wget,2013-03-13 02:35:00,
2013-03-12 22:40:00,31.5,22.2,27.22,North,351,4.8,12.3,68,0.00,--,--,0.00,awk and wget,2013-03-13 02:40:00,
2013-03-12 22:45:00,31.4,22.2,27.23,NNW,347,9.3,12.3,68,0.00,--,--,0.00,awk and wget,2013-03-13 02:45:00,
2013-03-12 22:50:00,30.8,22.6,27.23,NNW,345,3.5,9.5,71,0.00,--,--,0.00,awk and wget,2013-03-13 02:50:00,
2013-03-12 22:55:00,31.5,22.0,27.23,North,352,5.5,15.3,67,0.00,--,--,0.00,awk and wget,2013-03-13 02:55:00,
2013-03-12 23:00:00,31.4,22.5,27.23,NNW,340,8.4,15.3,69,0.00,--,--,0.00,awk and wget,2013-03-13 03:00:00,
2013-03-12 23:05:00,31.4,22.8,27.23,NNW,343,4.7,15.3,70,0.00,--,--,0.00,awk and wget,2013-03-13 03:05:00,
2013-03-12 23:10:00,31.7,22.6,27.23,North,351,5.9,13.2,68,0.00,--,--,0.00,awk and wget,2013-03-13 03:10:00,
2013-03-12 23:15:00,31.9,22.4,27.24,North,353,3.8,13.2,67,0.00,--,--,0.00,awk and wget,2013-03-13 03:15:00,
2013-03-12 23:20:00,31.8,22.4,27.24,North,352,7.3,18.0,67,0.00,--,--,0.00,awk and wget,2013-03-13 03:20:00,
2013-03-12 23:25:00,32.0,21.9,27.24,NNE,21,4.7,18.0,65,0.00,--,--,0.00,awk and wget,2013-03-13 03:25:00,
2013-03-12 23:30:00,32.0,21.6,27.24,North,350,7.3,18.0,65,0.00,--,--,0.00,awk and wget,2013-03-13 03:30:00,
2013-03-12 23:35:00,32.0,21.1,27.24,North,2,5.2,17.6,63,0.00,--,--,0.00,awk and wget,2013-03-13 03:35:00,
2013-03-12 23:40:00,32.0,21.3,27.24,NNW,340,5.0,17.6,64,0.00,--,--,0.00,awk and wget,2013-03-13 03:40:00,
2013-03-12 23:45:00,31.9,21.6,27.23,NNE,20,4.7,17.1,65,0.00,--,--,0.00,awk and wget,2013-03-13 03:45:00,
2013-03-12 23:50:00,32.0,21.3,27.23,NNE,20,1.9,16.3,64,0.00,--,--,0.00,awk and wget,2013-03-13 03:50:00,
2013-03-12 23:55:00,32.1,21.5,27.23,NNW,340,3.9,13.5,64,0.00,--,--,0.00,awk and wget,2013-03-13 03:55:00,